Flag for U.S.A. Weather past 2 weeks in Madison, Wisconsin, U.S.A.

Now
33 °F

Passing clouds.


Feels Like: 33 °F
Forecast: 34 / 66 °F
Wind: No wind

Location: Dane County Regional-Truax Field

Current Time: Apr 28, 2015 at 6:19:45 AM

Latest Report: Apr 28, 2015 at 5:53 AM


Visibility: 10 mi

Pressure: 30.17 "Hg

Humidity: 92%

Dew point: 31 °F

Location of MadisonLocation

Historic Weather in Madison — Graph

°F

Madison temperature yesterday

Maximum temperature yesterday: 67 °F (at 3:53 PM)
Minimum temperature yesterday: 32 °F (at 4:53 AM)
Average temperature yesterday: 51 °F

Past Weeks' High & Low Weather Summary

 TemperatureHumidityPressure
High78 °F (Apr 17, 3:53 PM)93% (Apr 19, 11:53 PM)30.32 "Hg (Apr 19, 11:53 PM)
Low28 °F (Apr 24, 4:53 AM)13% (Apr 14, 4:53 PM)29.22 "Hg (Apr 20, 3:53 AM)
Average49 °F53%29.94 "Hg
* Reported Apr 13 4:53 AM — Apr 28 4:53 AM, Madison, Weather by CustomWeather, © 2015

Note: Actual official high and low records may vary slightly from our data, if they occured in-between our weather recording intervals... More about our weather records

Advertising

Madison weather history for previous 24 hours

 ConditionsComfort  
Time TempWeatherWind HumidityBarometerVisibility
4:53 AM
Tue, Apr 28
33 °FClear.No wind92%30.16 "Hg10 mi
3:53 AM35 °FClear.3 mph88%30.16 "Hg10 mi
2:53 AM37 °FClear.No wind82%30.16 "Hg10 mi
1:53 AM39 °FClear.No wind76%30.16 "Hg10 mi
12:53 AM43 °FClear.5 mph68%30.16 "Hg10 mi
11:53 PM
Mon, Apr 27
44 °FClear.9 mph71%30.14 "Hg10 mi
10:53 PM48 °FClear.10 mph66%30.11 "Hg10 mi
9:53 PM53 °FClear.5 mph52%30.10 "Hg10 mi
8:53 PM54 °FClear.3 mph45%30.09 "Hg10 mi
7:53 PM60 °FPassing clouds.3 mph32%30.07 "Hg10 mi
6:53 PM64 °FPassing clouds.7 mph29%30.08 "Hg10 mi
5:53 PM66 °FPassing clouds.8 mph28%30.09 "Hg10 mi
4:53 PM67 °FPassing clouds.9 mph25%30.09 "Hg10 mi
3:53 PM67 °FPassing clouds.7 mph27%30.09 "Hg10 mi
2:53 PM65 °FPassing clouds.14 mph31%30.11 "Hg10 mi
1:53 PM63 °FPassing clouds.8 mph31%30.12 "Hg10 mi
12:53 PM61 °FPassing clouds.9 mph36%30.13 "Hg10 mi
11:53 AM58 °FPassing clouds.13 mph39%30.15 "Hg10 mi
10:53 AM56 °FPassing clouds.10 mph40%30.16 "Hg10 mi
9:53 AM52 °FPassing clouds.8 mph47%30.17 "Hg10 mi
8:53 AM50 °FPassing clouds.8 mph50%30.16 "Hg10 mi
7:53 AM44 °FSunny.9 mph63%30.15 "Hg10 mi
6:53 AM37 °FClear.5 mph76%30.14 "Hg10 mi
Weather by CustomWeather, © 2015

See weather overviewHow to use our weather pages